{"data":{"norad_id":69462,"epoch":"2026-09-19T05:20:26.534112Z","epoch_age_seconds":135793,"freshness":"FRESH","line1":"1 69462U 26127V   26262.22252933  .00024732  00000+0  74033-3 0  9998","line2":"2 69462  53.1600 171.8437 0001103 101.0050 259.1077 15.34415302 15990","mean_motion":15.34415302,"eccentricity":0.0001103,"inclination_deg":53.16,"raan_deg":171.8437,"arg_perigee_deg":101.005,"mean_anomaly_deg":259.1077,"bstar":0.00074033,"rev_number":1599,"period_min":93.846822181913,"perigee_km":461.90322015431,"apogee_km":463.41229947833,"semimajor_km":6840.7947598163,"source":"CELESTRAK","updated_at":"2026-09-20T09:00:44.202694Z"}}